• In Hungary
  • List of Countries
  • For 7 days
  • Water Temperature
  • Satellite Maps
  • Weather Map
  • News
  • Weather Widgets
  • user-avatar
    Login

    Hourly Weather Prcanj

    Today, 14 August, Tuesday

    Time Temperature Precipitation Wind Pressure Humidity
    00:00 +19°C° 0 mm 2 mps 705 mmHg 83%
    01:00 +20°C° 0 mm 2 mps 705 mmHg 83%
    02:00 +19°C° 0 mm 2 mps 705 mmHg 83%
    03:00 +19°C° 0 mm 2 mps 705 mmHg 82%
    04:00 +19°C° 0 mm 2 mps 705 mmHg 82%
    05:00 +20°C° 0 mm 2 mps 705 mmHg 76%
    06:00 +23°C° 0 mm 2 mps 705 mmHg 71%
    07:00 +24°C° 0 mm 2 mps 705 mmHg 66%
    08:00 +26°C° 0 mm 2 mps 705 mmHg 58%
    09:00 +27°C° 0 mm 2 mps 705 mmHg 51%
    10:00 +29°C° 0 mm 2 mps 706 mmHg 44%
    11:00 +29°C° 0 mm 2 mps 706 mmHg 43%
    12:00 +30°C° 0 mm 2 mps 705 mmHg 43%
    13:00 +30°C° 0 mm 2 mps 705 mmHg 43%
    14:00 +30°C° 0.1 mm 2 mps 705 mmHg 47%
    15:00 +29°C° 0.1 mm 2 mps 705 mmHg 50%
    16:00 +29°C° 0.1 mm 2 mps 705 mmHg 54%
    17:00 +26°C° 0.3 mm 1 mps 705 mmHg 61%
    18:00 +24°C° 0.3 mm 1 mps 704 mmHg 69%
    19:00 +22°C° 0.3 mm 1 mps 704 mmHg 77%
    20:00 +22°C° 0.1 mm 1 mps 704 mmHg 77%
    21:00 +21°C° 0.1 mm 1 mps 704 mmHg 77%
    22:00 +20°C° 0.1 mm 2 mps 705 mmHg 77%
    23:00 +20°C° 0.4 mm 2 mps 705 mmHg 78%

    Tomorrow, 15 August, Wednesday

    Time Temperature Precipitation Wind Pressure Humidity
    00:00 +19°C° 0.4 mm 2 mps 705 mmHg 79%
    01:00 +19°C° 0.4 mm 2 mps 705 mmHg 80%
    02:00 +19°C° 0 mm 2 mps 704 mmHg 79%
    03:00 +18°C° 0 mm 2 mps 704 mmHg 79%
    04:00 +18°C° 0 mm 3 mps 704 mmHg 79%
    05:00 +19°C° 0 mm 3 mps 704 mmHg 76%
    06:00 +20°C° 0 mm 2 mps 705 mmHg 73%
    07:00 +23°C° 0 mm 2 mps 705 mmHg 70%
    08:00 +25°C° 0.1 mm 2 mps 705 mmHg 63%
    09:00 +27°C° 0.1 mm 1 mps 706 mmHg 57%
    10:00 +28°C° 0.1 mm 1 mps 706 mmHg 50%
    11:00 +29°C° 0.3 mm 2 mps 706 mmHg 50%
    12:00 +29°C° 0.3 mm 2 mps 706 mmHg 51%
    13:00 +29°C° 0.3 mm 3 mps 706 mmHg 51%
    14:00 +29°C° 0.3 mm 3 mps 706 mmHg 53%
    15:00 +28°C° 0.3 mm 3 mps 706 mmHg 54%
    16:00 +28°C° 0.3 mm 3 mps 705 mmHg 56%
    17:00 +26°C° 0.2 mm 3 mps 705 mmHg 62%
    18:00 +24°C° 0.2 mm 3 mps 705 mmHg 67%
    19:00 +22°C° 0.2 mm 3 mps 705 mmHg 73%
    20:00 +21°C° 0.1 mm 3 mps 705 mmHg 75%
    21:00 +20°C° 0.1 mm 3 mps 706 mmHg 77%
    22:00 +20°C° 0.1 mm 3 mps 706 mmHg 79%
    23:00 +19°C° 0 mm 3 mps 706 mmHg 79%

    Day after tomorrow, 16 August, Thursday

    Time Temperature Precipitation Wind Pressure Humidity
    00:00 +19°C° 0 mm 3 mps 705 mmHg 80%
    01:00 +19°C° 0 mm 3 mps 705 mmHg 80%
    02:00 +19°C° 0 mm 3 mps 705 mmHg 80%
    03:00 +18°C° 0 mm 3 mps 705 mmHg 80%
    04:00 +18°C° 0 mm 3 mps 705 mmHg 79%
    05:00 +19°C° 0 mm 3 mps 705 mmHg 76%
    06:00 +20°C° 0 mm 3 mps 705 mmHg 73%
    07:00 +22°C° 0 mm 3 mps 706 mmHg 70%
    08:00 +24°C° 0 mm 2 mps 706 mmHg 64%
    09:00 +26°C° 0 mm 2 mps 706 mmHg 57%
    10:00 +28°C° 0 mm 1 mps 706 mmHg 50%
    11:00 +29°C° 0.2 mm 2 mps 706 mmHg 49%
    12:00 +29°C° 0.2 mm 2 mps 706 mmHg 48%
    13:00 +30°C° 0.2 mm 3 mps 706 mmHg 48%
    14:00 +29°C° 0.4 mm 3 mps 706 mmHg 50%
    15:00 +29°C° 0.4 mm 3 mps 706 mmHg 52%
    16:00 +28°C° 0.4 mm 3 mps 706 mmHg 54%
    17:00 +26°C° 0.2 mm 3 mps 706 mmHg 60%
    18:00 +25°C° 0.2 mm 3 mps 706 mmHg 65%
    19:00 +22°C° 0.2 mm 3 mps 706 mmHg 70%
    20:00 +21°C° 0.4 mm 3 mps 706 mmHg 72%
    21:00 +21°C° 0.4 mm 3 mps 706 mmHg 75%
    22:00 +20°C° 0.4 mm 2 mps 706 mmHg 77%
    23:00 +19°C° 0.6 mm 2 mps 706 mmHg 79%

    17 August, Friday

    Time Temperature Precipitation Wind Pressure Humidity
    00:00 +19°C° 0.6 mm 3 mps 706 mmHg 80%
    01:00 +19°C° 0.6 mm 3 mps 706 mmHg 82%
    02:00 +19°C° 0.5 mm 3 mps 706 mmHg 82%
    03:00 +18°C° 0.5 mm 3 mps 706 mmHg 82%
    04:00 +18°C° 0.5 mm 3 mps 705 mmHg 82%
    05:00 +19°C° 0.2 mm 2 mps 706 mmHg 79%
    06:00 +21°C° 0.2 mm 2 mps 706 mmHg 76%
    07:00 +23°C° 0.2 mm 2 mps 706 mmHg 73%
    08:00 +25°C° 0.2 mm 2 mps 706 mmHg 66%
    09:00 +26°C° 0.2 mm 2 mps 707 mmHg 59%
    10:00 +28°C° 0.2 mm 1 mps 707 mmHg 51%
    11:00 +28°C° 0.8 mm 2 mps 707 mmHg 52%
    12:00 +28°C° 0.8 mm 2 mps 706 mmHg 53%
    13:00 +28°C° 0.8 mm 2 mps 706 mmHg 54%
    14:00 +28°C° 0.6 mm 2 mps 706 mmHg 55%
    15:00 +28°C° 0.6 mm 2 mps 706 mmHg 56%
    16:00 +27°C° 0.6 mm 2 mps 706 mmHg 57%
    17:00 +26°C° 0.3 mm 2 mps 706 mmHg 63%
    18:00 +24°C° 0.3 mm 2 mps 706 mmHg 69%
    19:00 +22°C° 0.3 mm 1 mps 706 mmHg 75%
    20:00 +22°C° 0.1 mm 1 mps 706 mmHg 75%
    21:00 +21°C° 0.1 mm 1 mps 706 mmHg 75%
    22:00 +20°C° 0.1 mm 2 mps 706 mmHg 76%
    23:00 +20°C° 0 mm 2 mps 706 mmHg 75%

    18 August, Saturday

    Time Temperature Precipitation Wind Pressure Humidity
    00:00 +19°C° 0 mm 2 mps 706 mmHg 75%
    01:00 +19°C° 0 mm 2 mps 706 mmHg 74%
    02:00 +19°C° 0 mm 2 mps 706 mmHg 74%
    03:00 +19°C° 0 mm 2 mps 706 mmHg 74%
    04:00 +18°C° 0 mm 2 mps 706 mmHg 74%
    05:00 +20°C° 0 mm 2 mps 706 mmHg 72%
    06:00 +21°C° 0 mm 2 mps 707 mmHg 69%
    07:00 +23°C° 0 mm 2 mps 707 mmHg 67%
    08:00 +25°C° 0 mm 1 mps 707 mmHg 61%
    09:00 +27°C° 0 mm 1 mps 707 mmHg 55%
    10:00 +29°C° 0 mm 1 mps 707 mmHg 49%
    11:00 +29°C° 0.5 mm 1 mps 707 mmHg 50%
    12:00 +29°C° 0.5 mm 2 mps 707 mmHg 51%
    13:00 +29°C° 0.5 mm 3 mps 707 mmHg 51%
    14:00 +29°C° 0.5 mm 3 mps 707 mmHg 54%
    15:00 +28°C° 0.5 mm 3 mps 707 mmHg 57%
    16:00 +27°C° 0.5 mm 3 mps 707 mmHg 60%
    17:00 +26°C° 0.1 mm 3 mps 707 mmHg 65%
    18:00 +24°C° 0.1 mm 3 mps 707 mmHg 70%
    19:00 +22°C° 0.1 mm 3 mps 707 mmHg 75%
    20:00 +21°C° 0.3 mm 3 mps 707 mmHg 76%
    21:00 +20°C° 0.3 mm 3 mps 707 mmHg 78%
    22:00 +20°C° 0.3 mm 4 mps 707 mmHg 80%
    23:00 +19°C° 0.3 mm 4 mps 707 mmHg 80%

    19 August, Sunday

    Time Temperature Precipitation Wind Pressure Humidity
    00:00 +19°C° 0.3 mm 3 mps 707 mmHg 80%
    01:00 +19°C° 0.3 mm 3 mps 707 mmHg 80%
    02:00 +19°C° 0.1 mm 3 mps 707 mmHg 79%
    03:00 +19°C° 0.1 mm 3 mps 706 mmHg 78%
    04:00 +19°C° 0.1 mm 3 mps 706 mmHg 77%
    05:00 +20°C° 0.1 mm 3 mps 707 mmHg 74%
    06:00 +21°C° 0.1 mm 3 mps 707 mmHg 71%
    07:00 +22°C° 0.1 mm 3 mps 707 mmHg 68%
    08:00 +25°C° 0 mm 3 mps 707 mmHg 62%
    09:00 +27°C° 0 mm 3 mps 707 mmHg 55%
    10:00 +29°C° 0 mm 2 mps 707 mmHg 48%
    11:00 +29°C° 0 mm 3 mps 707 mmHg 47%
    12:00 +30°C° 0 mm 3 mps 707 mmHg 45%
    13:00 +30°C° 0 mm 4 mps 707 mmHg 44%
    14:00 +30°C° 0 mm 4 mps 707 mmHg 46%
    15:00 +29°C° 0 mm 4 mps 707 mmHg 48%
    16:00 +29°C° 0 mm 4 mps 707 mmHg 50%
    17:00 +27°C° 0 mm 4 mps 707 mmHg 55%
    18:00 +25°C° 0 mm 4 mps 707 mmHg 59%
    19:00 +23°C° 0 mm 4 mps 707 mmHg 63%
    20:00 +22°C° 0 mm 4 mps 707 mmHg 66%
    21:00 +21°C° 0 mm 4 mps 707 mmHg 68%
    22:00 +20°C° 0 mm 4 mps 707 mmHg 71%
    23:00 +20°C° 0 mm 4 mps 707 mmHg 72%
    Show more